| time (UTC) | temp F | wind direction | speed MPH | gust MPH | rain 1hr in | rain 24hr in | rain mn in | humidity % | barometer mb |
| 20260901110206 | 77 | 242 | 0.0 | 5.0 | 0.00 | 0.00 | 0.00 | 38 | 1018.1 |
| 20260901100206 | 77 | 119 | 0.0 | 1.0 | 0.00 | 0.00 | 0.00 | 42 | 1018.6 |
| 20260901090218 | 71 | 73 | 0.0 | 1.0 | 0.00 | 0.00 | 0.00 | 55 | 1018.5 |
| 20260901080206 | 67 | 109 | 0.0 | 1.0 | 0.00 | 0.00 | 0.00 | 65 | 1018.3 |
| 20260901070206 | 62 | 335 | 0.0 | 1.0 | 0.00 | 0.00 | 0.00 | 79 | 1018.1 |
| 20260901060205 | 60 | 127 | 0.0 | 0.0 | 0.00 | 0.00 | 0.00 | 83 | 1017.8 |
| 20260901050207 | 60 | 125 | 0.0 | 2.0 | 0.00 | 0.00 | 0.00 | 83 | 1017.4 |
| 20260901040206 | 60 | 123 | 0.0 | 0.0 | 0.00 | 0.00 | 0.00 | 79 | 1017.3 |
| 20260901020206 | 62 | 109 | 0.0 | 0.0 | 0.00 | 0.00 | 0.00 | 72 | 1017.2 |
| 20260901010205 | 62 | 104 | 0.0 | 0.0 | 0.00 | 0.00 | 0.00 | 70 | 1017.0 |
| 20260901000211 | 64 | 96 | 0.0 | 1.0 | 0.00 | 0.00 | 0.00 | 65 | 1017.1 |
| 20260831230226 | 64 | 317 | 0.0 | 0.0 | 0.00 | 0.14 | 0.00 | 64 | 1017.1 |
| 20260831210206 | 65 | 319 | 0.0 | 1.0 | 0.00 | 0.26 | 0.23 | 60 | 1017.1 |
| 20260831200206 | 67 | 321 | 0.0 | 0.0 | 0.00 | 0.26 | 0.23 | 55 | 1016.7 |
| 20260831190206 | 69 | 321 | 0.0 | 0.0 | 0.00 | 0.26 | 0.23 | 50 | 1016.3 |
| 20260831180208 | 72 | 330 | 0.0 | 3.0 | 0.00 | 0.26 | 0.23 | 46 | 1015.4 |
| 20260831170206 | 74 | 236 | 1.0 | 15.0 | 0.00 | 0.26 | 0.23 | 39 | 1015.4 |
| 20260831150207 | 77 | 0 | 7.0 | 15.0 | 0.00 | 0.26 | 0.23 | 41 | 1014.9 |
| 20260831140206 | 79 | 305 | 4.0 | 14.0 | 0.00 | 0.26 | 0.23 | 40 | 1014.3 |
| 20260831130207 | 81 | 352 | 1.0 | 10.0 | 0.00 | 0.26 | 0.23 | 35 | 1014.6 |
| 20260831120208 | 79 | 269 | 6.0 | 15.0 | 0.00 | 0.26 | 0.23 | 38 | 1014.8 |